Location: Saint Mary
(48.7436°N, 113.4291°W)
Time: 21:51:39
(UTC+00:00)

Envisat - Visible Passes

Search period start: 30 March 2023 00:00
Search period end: 09 April 2023 00:00
Orbit: 763 x 765 km, 98.2° (Epoch: 30 March)

Date Brightness Start Highest point End Pass type
(mag) Time Alt. Az. Time Alt. Az. Time Alt. Az.
30 Mar 3.5 11:26:14 10° NNE 11:31:17 61° ESE 11:36:18 10° S visible
31 Mar 4.7 10:49:32 10° NNE 10:53:58 30° E 10:58:24 10° SSE visible
31 Mar 3.5 12:28:20 10° N 12:33:06 42° WNW 12:37:50 10° SW visible
01 Apr 5.6 10:13:40 10° NE 10:16:28 15° E 10:19:15 10° ESE visible
01 Apr 3.0 11:51:01 10° NNE 11:56:08 84° WNW 12:01:12 10° SSW visible
02 Apr 3.9 11:14:01 10° NNE 11:18:57 48° E 11:23:51 10° S visible
03 Apr 5.1 10:37:30 10° NE 10:41:35 24° E 10:45:38 10° SE visible
03 Apr 3.2 12:15:56 10° N 12:20:52 52° WNW 12:25:47 10° SW visible
04 Apr 5.8 10:02:24 10° ENE 10:03:59 11° E 10:05:35 10° ESE visible
04 Apr 3.1 11:38:43 10° NNE 11:43:50 79° ESE 11:48:55 10° S visible
05 Apr 4.3 11:01:51 10° NNE 11:06:36 38° E 11:11:18 10° SSE visible
06 Apr 5.4 10:25:34 10° NE 10:29:10 19° E 10:32:43 10° SE visible
06 Apr 3.0 12:03:34 10° N 12:08:37 66° WNW 12:13:38 10° SSW visible
07 Apr 3.5 11:26:27 10° NNE 11:31:31 62° ESE 11:36:32 10° S visible
08 Apr 4.7 10:49:43 10° NNE 10:54:12 30° E 10:58:39 10° SSE visible
